Simultaneous Nadir Overpasses (SNOs) Predictions

Prediction of SNOs between AQUA and GOES-15 Satellite Orbit:

Table of predicted SNOs for the next 14.0 days since TLE Epoch: 5/24/2014
Index Date Time (AQUA) AQUA Lat,Lon GOES-15 Lat,Lon Distance(km) Time Diff (sec)
1 05/25/2014 22:35:37 -0.01,-134.92 -0.01,-134.95 4.25 80
2 05/27/2014 22:23:23 0.65,-131.95 -0.00,-135.03 349.52 80
3 05/28/2014 10:44:37 0.42,-137.11 -0.01,-135.06 233.44 80
4 05/30/2014 10:32:22 -0.20,-134.14 -0.01,-135.13 111.60 80
5 05/30/2014 22:53:46 -0.87,-139.34 0.01,-135.13 478.07 80
6 06/01/2014 10:20:08 -0.83,-131.17 -0.00,-135.19 456.35 80
7 06/01/2014 22:41:31 -0.24,-136.37 0.01,-135.20 133.38 80
8 06/03/2014 22:29:16 0.41,-133.40 0.01,-135.26 211.03 80
9 06/04/2014 10:50:30 0.70,-138.55 -0.02,-135.28 372.14 80
10 06/06/2014 10:38:15 0.04,-135.59 -0.01,-135.34 28.24 80




NCC Satellite Simultaneous Nadir Overpasses (SNOs) Prediction Service
